Regional Weather Roundup
Issued by NWS

Home | Current Version | Previous Version | Graphics & Text | Print | Product List | Glossary On
Versions: 1 2 3 4 5 6 7 8 9 10 11 12 13 14 15 16 17 18 19 20 21 22 23 24 25 26 27
000
ASUS45 KBOU 211907
RWRCO

WEATHER ROUNDUP FOR COLORADO
NATIONAL WEATHER SERVICE DENVER/BOULDER CO
100 PM MDT TUE OCT 21 2014

NOTE: "FAIR" INDICATES FEW OR NO CLOUDS BELOW 12000 FEET WITH NO
SIGNIFICANT WEATHER AND/OR OBSTRUCTIONS TO VISIBILITY.

COZ001>005-013-030-031-212000-
...NORTHWEST COLORADO...

CITY           SKY/WX    TMP DP  RH WIND       PRES   REMARKS
CRAIG          CLOUDY    64  40  41 S18G29    30.04F
HAYDEN         CLOUDY    63  36  36 SW16      30.06
MEEKER         CLOUDY    65  41  41 S18G24    30.06F
MOUNT WERNER   NOT AVBL
STEAMBOAT SPGS CLOUDY    58  40  51 E10       30.08F
WALDEN         CLOUDY    52  36  54 S15G26    30.15S
$$

COZ006>008-011-212000-
...WEST CENTRAL VALLEYS...

CITY           SKY/WX    TMP DP  RH WIND       PRES   REMARKS
GRAND JUNCTION CLOUDY    70  44  39 SE13      30.00F
MONTROSE       PTSUNNY   64  41  42 N9        30.10F
EAGLE          LGT RAIN  55  43  62 W10       30.14F
RIFLE          CLOUDY    59  42  53 NE6       30.07F
DELTA          CLOUDY    66  40  38 NE3       30.07F
NUCLA          CLOUDY    63  41  45 CALM      30.14F
$$

COZ017>023-064>068-212000-
...SOUTHWEST COLORADO...

CITY           SKY/WX    TMP DP  RH WIND       PRES   REMARKS
DURANGO        CLOUDY    58  43  57 VRB3      30.18F
CORTEZ         CLOUDY    62  44  51 S5        30.13F
PAGOSA SPRINGS CLOUDY    56  39  54 CALM      30.22F
TELLURIDE      LGT RAIN  49  37  64 SW5       30.28R
WOLF CREEK PAS CLOUDY    34  34 100 SW8         N/A  FOG     WCI  27
$$

COZ009-010-012-014-032>034-037-058>063-212000-
...CENTRAL COLORADO...

CITY           SKY/WX    TMP DP  RH WIND       PRES   REMARKS
ASPEN          CLOUDY    61  34  36 N6        30.13F
BUENA VISTA    CLOUDY    57  36  46 CALM      30.18F
COPPER MTN     PTSUNNY   45  27  49 SW6G17    30.36F
BERTHOUD PASS  CLOUDY    36  32  87 NW7G21    30.39F
COTTONWOOD PAS CLOUDY    52  36  54 SE3       30.27F
GUNNISON       PTSUNNY   55  34  44 S3        30.19F
KREMMLING      CLOUDY    55  34  44 CALM        N/A
LEADVILLE      CLOUDY    45  31  58 S3        30.25F
MONARCH PASS   CLOUDY    39  30  70 SW9       30.47F
SALIDA         PTSUNNY   64  35  34 S10       30.20F
SUNLIGHT       CLOUDY    46  43  87 CALM      30.30F
WILKERSON PASS NOT AVBL
$$

COZ069>075-212000-
...SAN LUIS VALLEY/SANGRE DE CRISTO MOUNTAINS...

CITY           SKY/WX    TMP DP  RH WIND       PRES   REMARKS
ALAMOSA        MOSUNNY   59  36  42 S6        30.18F
LA VETA PASS   MOSUNNY   46  32  57 S13G22    30.29F
SAGUACHE       PTSUNNY   57  37  47 S12       30.20F
$$

COZ035-036-038>040-212000-
...NORTHERN COLORADO FRONT RANGE...

CITY           SKY/WX    TMP DP  RH WIND       PRES   REMARKS
DENVER INTL AP MOSUNNY   76  33  21 W7        29.97F
DMNS CITY PARK   N/A     76  33  21 NE7       29.96F
AURORA         MOSUNNY   73  33  23 NW6       29.99F
FRONT RANGE AP MOSUNNY   75  37  25 S5        29.99F
ERIE MUNI ARPT MOSUNNY   75  36  24 E8        29.96F
BOULDER MUN AP MOSUNNY   70  39  32 CALM      29.97F
CENTENNIAL     MOSUNNY   72  32  23 VRB5      30.00F
BROOMFIELD     PTSUNNY   73  36  25 NE3       30.00F
FORT COLLINS   MOSUNNY   73  43  33 SE12      29.96F
LONGMONT       MOSUNNY   76  40  27 E8        29.97F
$$

COZ041-046-047-076>085-087-088-212000-
...PIKES PEAK/PALMER DIVIDE AND SOUTHERN FOOTHILLS...

CITY           SKY/WX    TMP DP  RH WIND       PRES   REMARKS
COLO. SPRINGS  MOSUNNY   69  39  33 S12G20    30.06F
A. F. ACADEMY  SUNNY     68  39  34 S16       30.06F
ELLICOTT       SUNNY     68  38  33 S14       30.05F
FALCON         SUNNY     67  37  32 S12       30.10F
FORT CARSON    SUNNY     72  38  28 S20       30.02F
LIMON          SUNNY     71  38  29 S13G22    30.02F
MONUMENT HILL  MOSUNNY   68  32  26 SW8G22    30.07F
TRINIDAD       CLOUDY    68  39  34 SW15      30.06F
$$

COZ042>045-048>051-090-091-212000-
...NORTHEAST COLORADO...

CITY           SKY/WX    TMP DP  RH WIND       PRES   REMARKS
GREELEY ARPT   SUNNY     73  39  29 SE3       29.96F
AKRON          SUNNY     78  36  21 S17G24    29.95F
BURLINGTON     SUNNY     76  45  33 S22G28    30.00F
WRAY           SUNNY     82  42  24 S20G29    29.94F
STERLING       SUNNY     77  45  31 S10       29.93F
HOLYOKE        SUNNY     79  46  31 S15G22    29.93F
FORT MORGAN    SUNNY     74  37  26 S3        29.96F
$$

COZ086-089-092>099-212000-
...SOUTHEAST COLORADO...

CITY           SKY/WX    TMP DP  RH WIND       PRES   REMARKS
PUEBLO         SUNNY     71  40  32 E6        29.99F
LA JUNTA       SUNNY     78  40  25 S14G21    29.98F
LAMAR          SUNNY     80  43  26 S22       29.97F
SPRINGFIELD    NOT AVBL
$$



USA.gov is the U.S. government's official web portal to all federal, state and local government web resources and services.